星链-5852 (STARLINK-5852 )

导读

STARLINK-5852是美国太空探索技术公司SpaceX星链卫星星座的其中一颗卫星,于2023年3月17日发射入轨,属于星链星座低轨组网部署的批次卫星之一,主要服务于星链全球卫星互联网项目,为全球范围提供高速低延迟的宽带网络服务,完善星座的全球覆盖能力与服务容量,推动卫星互联网的全球部署进程。

基本信息
目录编号:
55933
目录名称:
STARLINK-5852
国际标识:
2023-037V
轨道中心:
EARTH
卫星名称:
星链-5852
卫星全名:
星链-5852 (STARLINK-5852 )
卫星状态:
在轨 (已飞行1186 天)
发射日期:
2023-03-17 UTC
国别 :
美国 (US)
星等 :
--
轨道信息
数据来源 国际轨道数据
星历时间: 2026-06-15T04:44:28+0800
3小时前
查看轨道信息
半长轴: 6950.193km
偏心率: 0.0002923
轨道倾角: 70.000°
近地点辐角 269.518°
升交点赤经 39.545°
平近点角 90.565°
近地点: 570.024km
远地点: 574.088km
周期: 96.107分钟
每日圈数: 14.983301
详细信息
固有亮度:
5
最大亮度:
2.5
卫星平台:
Starlink v1.5
覆盖范围:
全球
运营商:
太空探索技术公司
运营商所在国:
美国
制造商(研发单位):
太空探索技术公司
制造商所在国:
美国
使用方式:
暂无
卫星简介
星链(Starlink)计划是由太空探索技术公司(SpaceX)提出的一个巨型低轨卫星互联网星座项目,计划在2019年至2024年间在太空搭建由约1.2万颗卫星组成的“星链”网络,其中1584颗将部署在地球上空550千米处的近地轨道,并从2020年开始工作。该卫星仍在工作。
2D轨道图
3D轨道图
轨道高度分析图
轨道倾角分析图
轨道综合分析图
查看轨道综合分析图